QPF
0.00 0.00 0.00 0.00 0.00 0.00 0.00 0.00 0.00 0.00 0.00 0.00 0.00 0.01 0.01 0.01 0.01 0.01 0.01 0.02 0.02 0.02 0.02 0.01 0.01 0.01 0.01 0.01 0.01 0.01 0.01 0.01 0.01 0.01 0.00 0.00 0.00 0.00 0.00 0.00 0.00 0.00 0.00
0.00 0.00 0.00 0.00 0.00 0.00 0.00 0.00 0.00 0.00 0.00 0.00 0.00 0.00 0.00 0.01 0.01 0.01 0.01 0.02 0.02 0.02 0.02 0.02 0.02 0.02 0.02 0.02 0.03 0.03 0.03 0.03 0.03 0.02 0.01 0.00 0.00 0.00 0.00 0.00 0.00 0.00 0.00
0.00 0.00 0.00 0.00 0.00 0.00 0.00 0.00 0.00 0.00 0.00 0.00 0.00 0.00 0.01 0.00 0.00 0.00 0.00 0.01 0.01 0.02 0.03 0.03 0.03 0.03 0.04 0.04 0.04 0.05 0.06 0.05 0.05 0.05 0.04 0.02 0.00 0.00 0.00 0.00 0.00 0.00 0.00
0.00 0.00 0.00 0.00 0.00 0.00 0.00 0.00 0.00 0.00 0.00 0.00 0.00 0.00 0.00 0.00 0.00 0.00 0.00 0.00 0.01 0.01 0.01 0.02 0.03 0.04 0.05 0.05 0.06 0.07 0.08 0.08 0.07 0.07 0.05 0.04 0.02 0.01 0.01 0.00 0.01 0.01 0.01
0.00 0.00 0.00 0.00 0.00 0.00 0.00 0.00 0.00 0.00 0.00 0.00 0.00 0.00 0.00 0.00 0.00 0.00 0.00 0.00 0.00 0.01 0.01 0.01 0.02 0.03 0.04 0.05 0.08 0.10 0.11 0.10 0.10 0.09 0.08 0.09 0.06 0.03 0.02 0.02 0.02 0.03 0.03
0.00 0.00 0.00 0.00 0.00 0.00 0.00 0.00 0.00 0.00 0.00 0.00 0.00 0.00 0.00 0.00 0.00 0.00 0.00 0.00 0.00 0.00 0.01 0.01 0.02 0.02 0.03 0.05 0.07 0.11 0.12 0.13 0.12 0.12 0.10 0.12 0.11 0.08 0.07 0.06 0.05 0.05 0.05
0.00 0.00 0.00 0.00 0.00 0.00 0.00 0.00 0.00 0.00 0.00 0.00 0.00 0.00 0.00 0.00 0.00 0.00 0.00 0.00 0.00 0.00 0.00 0.01 0.01 0.02 0.03 0.04 0.07 0.09 0.11 0.14 0.14 0.14 0.13 0.14 0.14 0.14 0.14 0.12 0.09 0.07 0.06
0.00 0.00 0.00 0.00 0.00 0.00 0.00 0.00 0.00 0.00 0.00 0.00 0.00 0.00 0.00 0.00 0.00 0.00 0.00 0.00 0.00 0.00 0.00 0.00 0.01 0.01 0.02 0.04 0.06 0.09 0.11 0.14 0.15 0.15 0.16 0.15 0.14 0.15 0.15 0.15 0.15 0.13 0.10
0.00 0.00 0.00 0.00 0.00 0.00 0.00 0.00 0.00 0.00 0.00 0.00 0.00 0.00 0.00 0.00 0.00 0.00 0.00 0.00 0.00 0.00 0.00 0.00 0.00 0.01 0.02 0.03 0.05 0.07 0.09 0.12 0.13 0.15 0.17 0.17 0.16 0.16 0.16 0.18 0.20 0.23 0.21
0.00 0.00 0.00 0.00 0.00 0.00 0.00 0.00 0.00 0.00 0.00 0.00 0.00 0.00 0.00 0.00 0.00 0.00 0.00 0.00 0.00 0.00 0.00 0.00 0.00 0.00 0.01 0.01 0.03 0.05 0.07 0.10 0.11 0.13 0.16 0.17 0.17 0.18 0.19 0.21 0.24 0.26 0.29
0.00 0.00 0.00 0.00 0.00 0.00 0.00 0.00 0.00 0.00 0.00 0.00 0.00 0.00 0.00 0.00 0.00 0.00 0.00 0.00 0.00 0.00 0.00 0.00 0.00 0.00 0.00 0.01 0.02 0.03 0.05 0.07 0.09 0.10 0.12 0.14 0.15 0.16 0.18 0.22 0.25 0.28 0.31
0.00 0.00 0.00 0.00 0.00 0.00 0.00 0.00 0.00 0.00 0.00 0.00 0.00 0.00 0.00 0.00 0.00 0.00 0.00 0.00 0.00 0.00 0.00 0.00 0.00 0.00 0.01 0.01 0.02 0.03 0.04 0.05 0.06 0.08 0.10 0.12 0.13 0.13 0.14 0.17 0.20 0.22 0.24
0.00 0.00 0.00 0.00 0.00 0.00 0.00 0.00 0.00 0.00 0.00 0.00 0.00 0.00 0.00 0.00 0.00 0.00 0.00 0.00 0.00 0.00 0.00 0.00 0.00 0.00 0.00 0.01 0.01 0.03 0.05 0.05 0.05 0.05 0.06 0.08 0.08 0.09 0.10 0.11 0.13 0.15 0.16
0.00 0.00 0.00 0.00 0.00 0.00 0.00 0.00 0.00 0.00 0.00 0.00 0.00 0.00 0.00 0.00 0.00 0.00 0.00 0.00 0.00 0.00 0.00 0.00 0.00 0.00 0.00 0.00 0.01 0.02 0.03 0.02 0.02 0.02 0.03 0.04 0.05 0.06 0.08 0.09 0.11 0.12 0.12
0.00 0.00 0.00 0.00 0.00 0.00 0.00 0.00 0.00 0.00 0.00 0.00 0.00 0.00 0.00 0.00 0.00 0.00 0.00 0.00 0.00 0.00 0.00 0.00 0.00 0.00 0.00 0.00 0.00 0.00 0.00 0.01 0.02 0.02 0.03 0.04 0.05 0.07 0.07 0.07 0.07 0.08 0.09
0.00 0.00 0.00 0.00 0.00 0.00 0.00 0.00 0.00 0.00 0.00 0.00 0.00 0.00 0.00 0.00 0.00 0.00 0.00 0.00 0.00 0.00 0.00 0.00 0.00 0.00 0.00 0.00 0.00 0.00 0.00 0.01 0.01 0.02 0.02 0.03 0.04 0.05 0.06 0.07 0.07 0.06 0.05
0.00 0.00 0.00 0.00 0.00 0.00 0.00 0.00 0.00 0.00 0.00 0.00 0.00 0.00 0.00 0.00 0.00 0.00 0.00 0.00 0.00 0.00 0.00 0.00 0.00 0.00 0.00 0.01 0.00 0.00 0.00 0.00 0.01 0.01 0.01 0.02 0.03 0.04 0.04 0.05 0.05 0.05 0.04
0.00 0.00 0.00 0.00 0.00 0.00 0.00 0.00 0.00 0.00 0.00 0.00 0.00 0.00 0.00 0.00 0.00 0.00 0.00 0.00 0.00 0.00 0.00 0.00 0.00 0.00 0.00 0.00 0.00 0.01 0.01 0.01 0.01 0.01 0.02 0.02 0.02 0.02 0.02 0.02 0.02 0.01 0.01
0.00 0.00 0.00 0.00 0.00 0.00 0.00 0.00 0.00 0.00 0.00 0.00 0.00 0.00 0.00 0.00 0.00 0.00 0.00 0.00 0.00 0.00 0.00 0.00 0.00 0.00 0.00 0.00 0.00 0.00 0.00 0.00 0.00 0.01 0.01 0.01 0.01 0.01 0.00 0.00 0.00 0.00 0.00
0.00 0.00 0.00 0.00 0.00 0.00 0.00 0.00 0.00 0.00 0.00 0.00 0.00 0.00 0.00 0.00 0.00 0.00 0.00 0.00 0.00 0.00 0.00 0.00 0.00 0.00 0.00 0.00 0.00 0.00 0.00 0.00 0.00 0.00 0.00 0.00 0.00 0.00 0.00 0.00 0.00 0.00 0.00
0.00 0.00 0.00 0.00 0.00 0.00 0.00 0.00 0.00 0.00 0.00 0.00 0.00 0.00 0.00 0.00 0.00 0.00 0.00 0.00 0.00 0.00 0.00 0.00 0.00 0.00 0.00 0.00 0.00 0.00 0.00 0.00 0.00 0.00 0.00 0.00 0.00 0.00 0.00 0.00 0.00 0.00 0.00
0.00 0.00 0.00 0.00 0.00 0.00 0.00 0.00 0.00 0.00 0.00 0.00 0.00 0.00 0.00 0.00 0.00 0.00 0.00 0.00 0.00 0.00 0.00 0.00 0.00 0.00 0.00 0.00 0.00 0.00 0.00 0.00 0.00 0.00 0.00 0.00 0.00 0.00 0.00 0.00 0.00 0.00 0.00
0.00 0.00 0.00 0.00 0.00 0.00 0.00 0.00 0.00 0.00 0.00 0.00 0.00 0.00 0.00 0.00 0.00 0.00 0.00 0.00 0.00 0.00 0.00 0.00 0.00 0.00 0.00 0.00 0.00 0.00 0.00 0.00 0.00 0.00 0.00 0.00 0.00 0.00 0.00 0.00 0.00 0.00 0.00
0.00 0.00 0.00 0.00 0.00 0.00 0.00 0.00 0.00 0.00 0.00 0.00 0.00 0.00 0.00 0.00 0.00 0.00 0.00 0.00 0.00 0.00 0.00 0.00 0.00 0.00 0.00 0.00 0.00 0.00 0.00 0.00 0.00 0.00 0.00 0.00 0.00 0.00 0.00 0.00 0.00 0.00 0.00
0.00 0.00 0.00 0.00 0.00 0.00 0.00 0.00 0.00 0.00 0.00 0.00 0.00 0.00 0.00 0.00 0.00 0.00 0.00 0.00 0.00 0.00 0.00 0.00 0.00 0.00 0.00 0.00 0.00 0.00 0.00 0.00 0.00 0.00 0.00 0.00 0.00 0.00 0.00 0.00 0.00 0.00 0.00
0.00 0.00 0.00 0.00 0.00 0.00 0.00 0.00 0.00 0.00 0.00 0.00 0.00 0.00 0.00 0.00 0.00 0.00 0.00 0.00 0.00 0.00 0.00 0.00 0.00 0.00 0.00 0.00 0.00 0.00 0.00 0.00 0.00 0.00 0.00 0.00 0.00 0.00 0.00 0.00 0.00 0.00 0.00
MSLP
1015.62 1015.73 1015.85 1015.93 1015.97 1015.97 1015.95 1015.92 1015.92 1015.97 1016.06 1016.20 1016.36 1016.51 1016.64 1016.72 1016.76 1016.77 1016.76 1016.76 1016.80 1016.89 1017.03 1017.22 1017.45 1017.70 1017.96 1018.22 1018.48 1018.73 1018.98 1019.25 1019.52 1019.79 1020.04 1020.26 1020.43 1020.53 1020.57 1020.55 1020.51 1020.45 1020.41
1015.80 1015.93 1016.04 1016.10 1016.11 1016.07 1016.02 1015.98 1015.98 1016.04 1016.16 1016.31 1016.47 1016.61 1016.70 1016.72 1016.68 1016.60 1016.50 1016.42 1016.38 1016.41 1016.52 1016.69 1016.91 1017.15 1017.40 1017.65 1017.90 1018.14 1018.39 1018.66 1018.95 1019.25 1019.54 1019.80 1020.02 1020.17 1020.24 1020.25 1020.21 1020.15 1020.11
1015.88 1016.04 1016.17 1016.23 1016.23 1016.18 1016.12 1016.09 1016.11 1016.19 1016.33 1016.50 1016.66 1016.79 1016.84 1016.80 1016.67 1016.50 1016.30 1016.13 1016.01 1015.97 1016.01 1016.14 1016.32 1016.54 1016.76 1016.99 1017.21 1017.44 1017.68 1017.95 1018.24 1018.56 1018.88 1019.18 1019.43 1019.63 1019.74 1019.78 1019.76 1019.72 1019.69
1015.85 1016.07 1016.23 1016.33 1016.35 1016.32 1016.28 1016.26 1016.30 1016.40 1016.55 1016.73 1016.89 1016.99 1017.00 1016.90 1016.71 1016.45 1016.16 1015.89 1015.69 1015.57 1015.54 1015.61 1015.73 1015.90 1016.08 1016.27 1016.47 1016.67 1016.89 1017.14 1017.44 1017.76 1018.09 1018.42 1018.70 1018.93 1019.07 1019.15 1019.17 1019.15 1019.15
1015.73 1016.02 1016.26 1016.42 1016.50 1016.51 1016.50 1016.50 1016.56 1016.67 1016.82 1016.99 1017.13 1017.20 1017.17 1017.02 1016.77 1016.44 1016.08 1015.74 1015.46 1015.26 1015.16 1015.15 1015.22 1015.32 1015.45 1015.60 1015.75 1015.92 1016.11 1016.35 1016.63 1016.95 1017.28 1017.61 1017.91 1018.15 1018.32 1018.43 1018.48 1018.50 1018.53
1015.56 1015.96 1016.30 1016.55 1016.70 1016.77 1016.80 1016.83 1016.88 1016.98 1017.11 1017.25 1017.36 1017.39 1017.32 1017.14 1016.84 1016.48 1016.08 1015.69 1015.35 1015.10 1014.93 1014.86 1014.85 1014.90 1014.97 1015.07 1015.18 1015.31 1015.48 1015.69 1015.94 1016.23 1016.55 1016.86 1017.15 1017.39 1017.58 1017.70 1017.78 1017.84 1017.90
1015.41 1015.92 1016.38 1016.74 1016.98 1017.12 1017.19 1017.23 1017.27 1017.34 1017.43 1017.52 1017.57 1017.56 1017.47 1017.26 1016.96 1016.58 1016.17 1015.77 1015.41 1015.12 1014.92 1014.79 1014.73 1014.71 1014.73 1014.78 1014.84 1014.94 1015.07 1015.25 1015.47 1015.73 1016.01 1016.29 1016.55 1016.77 1016.94 1017.07 1017.17 1017.26 1017.35
1015.31 1015.95 1016.53 1017.00 1017.34 1017.55 1017.66 1017.71 1017.72 1017.74 1017.77 1017.79 1017.79 1017.74 1017.61 1017.41 1017.12 1016.77 1016.39 1016.01 1015.67 1015.37 1015.15 1014.99 1014.88 1014.82 1014.79 1014.79 1014.82 1014.88 1014.98 1015.12 1015.30 1015.51 1015.74 1015.97 1016.18 1016.36 1016.51 1016.63 1016.73 1016.82 1016.94
1015.30 1016.05 1016.75 1017.32 1017.75 1018.02 1018.16 1018.21 1018.20 1018.16 1018.12 1018.08 1018.02 1017.93 1017.79 1017.59 1017.34 1017.05 1016.73 1016.40 1016.10 1015.83 1015.61 1015.44 1015.31 1015.22 1015.16 1015.12 1015.12 1015.15 1015.21 1015.31 1015.44 1015.60 1015.77 1015.94 1016.09 1016.22 1016.33 1016.42 1016.50 1016.60 1016.72
1015.37 1016.21 1017.00 1017.67 1018.17 1018.49 1018.66 1018.70 1018.66 1018.58 1018.48 1018.37 1018.26 1018.14 1018.00 1017.83 1017.63 1017.41 1017.16 1016.92 1016.68 1016.46 1016.27 1016.11 1015.97 1015.86 1015.77 1015.71 1015.68 1015.69 1015.72 1015.79 1015.88 1015.98 1016.09 1016.19 1016.28 1016.35 1016.40 1016.45 1016.51 1016.60 1016.72
1015.50 1016.40 1017.25 1017.98 1018.53 1018.89 1019.09 1019.13 1019.08 1018.96 1018.82 1018.67 1018.52 1018.39 1018.26 1018.13 1017.98 1017.83 1017.67 1017.50 1017.34 1017.18 1017.03 1016.88 1016.76 1016.64 1016.55 1016.48 1016.44 1016.43 1016.44 1016.48 1016.53 1016.59 1016.65 1016.69 1016.71 1016.72 1016.72 1016.72 1016.75 1016.82 1016.92
1015.65 1016.58 1017.45 1018.20 1018.78 1019.18 1019.39 1019.46 1019.40 1019.28 1019.12 1018.95 1018.80 1018.67 1018.55 1018.45 1018.37 1018.28 1018.20 1018.11 1018.01 1017.91 1017.80 1017.69 1017.58 1017.48 1017.39 1017.32 1017.27 1017.26 1017.26 1017.28 1017.31 1017.34 1017.35 1017.33 1017.30 1017.25 1017.21 1017.17 1017.16 1017.20 1017.28
1015.78 1016.69 1017.56 1018.31 1018.90 1019.32 1019.56 1019.65 1019.62 1019.51 1019.37 1019.21 1019.07 1018.95 1018.87 1018.80 1018.76 1018.74 1018.71 1018.68 1018.64 1018.59 1018.52 1018.44 1018.36 1018.27 1018.20 1018.15 1018.11 1018.10 1018.11 1018.12 1018.14 1018.14 1018.12 1018.07 1017.99 1017.90 1017.81 1017.73 1017.69 1017.69 1017.75
1015.86 1016.74 1017.57 1018.30 1018.89 1019.32 1019.58 1019.71 1019.72 1019.66 1019.56 1019.44 1019.33 1019.24 1019.19 1019.16 1019.16 1019.18 1019.20 1019.21 1019.22 1019.20 1019.17 1019.12 1019.06 1019.00 1018.95 1018.91 1018.90 1018.90 1018.92 1018.94 1018.95 1018.94 1018.90 1018.82 1018.71 1018.59 1018.46 1018.35 1018.27 1018.23 1018.26
1015.89 1016.72 1017.51 1018.20 1018.77 1019.20 1019.50 1019.67 1019.74 1019.74 1019.69 1019.63 1019.57 1019.53 1019.51 1019.52 1019.56 1019.60 1019.66 1019.71 1019.74 1019.75 1019.75 1019.72 1019.69 1019.65 1019.62 1019.61 1019.62 1019.64 1019.67 1019.70 1019.71 1019.70 1019.64 1019.55 1019.42 1019.27 1019.11 1018.96 1018.85 1018.78 1018.76
1015.88 1016.66 1017.40 1018.05 1018.59 1019.03 1019.35 1019.56 1019.69 1019.76 1019.79 1019.79 1019.79 1019.81 1019.84 1019.89 1019.95 1020.03 1020.11 1020.18 1020.23 1020.27 1020.28 1020.28 1020.26 1020.25 1020.24 1020.25 1020.27 1020.31 1020.35 1020.39 1020.40 1020.38 1020.32 1020.21 1020.07 1019.89 1019.71 1019.53 1019.39 1019.28 1019.23
1015.86 1016.60 1017.29 1017.90 1018.42 1018.85 1019.19 1019.44 1019.63 1019.76 1019.86 1019.94 1020.01 1020.08 1020.17 1020.26 1020.36 1020.47 1020.57 1020.66 1020.73 1020.78 1020.81 1020.83 1020.82 1020.82 1020.83 1020.84 1020.87 1020.92 1020.96 1020.99 1021.00 1020.98 1020.91 1020.79 1020.63 1020.44 1020.23 1020.03 1019.85 1019.71 1019.62
1015.86 1016.57 1017.22 1017.80 1018.30 1018.71 1019.06 1019.34 1019.57 1019.76 1019.93 1020.07 1020.21 1020.35 1020.49 1020.64 1020.78 1020.92 1021.05 1021.16 1021.25 1021.32 1021.36 1021.37 1021.38 1021.38 1021.38 1021.40 1021.42 1021.45 1021.48 1021.50 1021.50 1021.46 1021.38 1021.25 1021.08 1020.87 1020.65 1020.43 1020.22 1020.05 1019.92
1015.88 1016.58 1017.21 1017.76 1018.23 1018.63 1018.98 1019.28 1019.54 1019.78 1020.00 1020.21 1020.41 1020.61 1020.81 1021.01 1021.20 1021.37 1021.53 1021.67 1021.78 1021.85 1021.90 1021.91 1021.91 1021.90 1021.89 1021.88 1021.88 1021.89 1021.89 1021.89 1021.87 1021.81 1021.71 1021.57 1021.39 1021.18 1020.95 1020.71 1020.49 1020.30 1020.14
1015.92 1016.62 1017.22 1017.75 1018.20 1018.59 1018.93 1019.24 1019.53 1019.80 1020.06 1020.32 1020.58 1020.84 1021.09 1021.34 1021.58 1021.79 1021.98 1022.14 1022.26 1022.34 1022.38 1022.39 1022.37 1022.34 1022.30 1022.26 1022.22 1022.19 1022.16 1022.13 1022.08 1022.00 1021.89 1021.75 1021.57 1021.36 1021.13 1020.89 1020.67 1020.47 1020.29
1015.95 1016.62 1017.21 1017.72 1018.15 1018.54 1018.88 1019.19 1019.50 1019.80 1020.10 1020.40 1020.70 1021.01 1021.31 1021.60 1021.88 1022.13 1022.34 1022.52 1022.65 1022.73 1022.76 1022.75 1022.71 1022.64 1022.56 1022.48 1022.41 1022.34 1022.28 1022.21 1022.14 1022.05 1021.93 1021.79 1021.62 1021.42 1021.21 1020.99 1020.78 1020.58 1020.41
1015.89 1016.54 1017.11 1017.60 1018.03 1018.41 1018.76 1019.09 1019.41 1019.74 1020.07 1020.40 1020.75 1021.09 1021.43 1021.75 1022.06 1022.33 1022.57 1022.75 1022.88 1022.95 1022.97 1022.94 1022.86 1022.77 1022.65 1022.54 1022.43 1022.33 1022.23 1022.15 1022.06 1021.97 1021.86 1021.73 1021.59 1021.42 1021.23 1021.04 1020.86 1020.68 1020.52
1015.71 1016.32 1016.86 1017.33 1017.76 1018.15 1018.51 1018.87 1019.22 1019.57 1019.93 1020.30 1020.68 1021.05 1021.42 1021.77 1022.09 1022.38 1022.62 1022.80 1022.92 1022.98 1022.98 1022.93 1022.83 1022.71 1022.57 1022.43 1022.29 1022.17 1022.07 1021.98 1021.89 1021.81 1021.72 1021.62 1021.51 1021.38 1021.24 1021.09 1020.93 1020.78 1020.64
1015.36 1015.91 1016.41 1016.87 1017.30 1017.71 1018.10 1018.49 1018.88 1019.28 1019.68 1020.08 1020.48 1020.88 1021.27 1021.63 1021.96 1022.25 1022.49 1022.66 1022.77 1022.82 1022.80 1022.73 1022.62 1022.48 1022.33 1022.19 1022.05 1021.93 1021.83 1021.75 1021.69 1021.63 1021.58 1021.51 1021.44 1021.35 1021.26 1021.15 1021.03 1020.91 1020.79
1014.84 1015.32 1015.78 1016.22 1016.66 1017.09 1017.53 1017.96 1018.40 1018.84 1019.28 1019.71 1020.15 1020.57 1020.97 1021.34 1021.67 1021.96 1022.19 1022.36 1022.46 1022.50 1022.47 1022.40 1022.29 1022.15 1022.01 1021.88 1021.76 1021.66 1021.59 1021.54 1021.50 1021.48 1021.46 1021.44 1021.41 1021.36 1021.31 1021.23 1021.15 1021.05 1020.94
1014.22 1014.61 1015.02 1015.44 1015.89 1016.35 1016.82 1017.30 1017.78 1018.27 1018.75 1019.22 1019.68 1020.12 1020.54 1020.92 1021.26 1021.55 1021.78 1021.94 1022.04 1022.08 1022.06 1022.00 1021.90 1021.79 1021.67 1021.57 1021.48 1021.42 1021.38 1021.37 1021.37 1021.39 1021.40 1021.41 1021.41 1021.40 1021.37 1021.31 1021.24 1021.16 1021.05
Thickness
5656 5661 5665 5669 5672 5674 5676 5678 5679 5681 5683 5683 5683 5683 5683 5685 5685 5685 5684 5683 5681 5679 5677 5675 5672 5669 5665 5663 5659 5655 5650 5646 5641 5635 5631 5630 5628 5626 5625 5622 5620 5617 5615
5648 5651 5655 5658 5662 5664 5666 5668 5670 5672 5674 5676 5677 5677 5678 5679 5679 5679 5679 5678 5676 5674 5672 5670 5667 5664 5661 5657 5654 5649 5645 5641 5634 5628 5621 5618 5619 5619 5618 5614 5612 5610 5607
5641 5643 5646 5649 5652 5654 5656 5659 5660 5663 5666 5668 5669 5670 5670 5670 5670 5671 5671 5671 5670 5668 5666 5665 5662 5659 5656 5652 5649 5645 5639 5634 5628 5623 5616 5610 5613 5610 5608 5606 5606 5603 5599
5634 5636 5639 5641 5643 5645 5647 5650 5652 5654 5656 5659 5660 5660 5659 5659 5660 5661 5662 5662 5662 5661 5660 5658 5656 5653 5651 5647 5644 5640 5635 5629 5623 5615 5611 5609 5607 5599 5599 5597 5595 5593 5591
5626 5629 5632 5634 5635 5636 5638 5641 5643 5644 5646 5648 5649 5649 5649 5649 5650 5651 5652 5653 5653 5653 5652 5650 5649 5646 5644 5641 5638 5634 5629 5624 5619 5612 5604 5598 5593 5590 5587 5587 5585 5580 5582
5618 5621 5622 5624 5625 5626 5629 5631 5633 5634 5635 5637 5638 5638 5638 5639 5640 5641 5641 5642 5642 5642 5642 5641 5640 5639 5636 5634 5631 5628 5623 5619 5614 5608 5600 5593 5587 5584 5577 5575 5573 5569 5569
5609 5610 5612 5613 5615 5616 5618 5620 5621 5622 5623 5625 5626 5627 5628 5629 5629 5630 5630 5631 5631 5631 5631 5631 5630 5629 5628 5626 5624 5620 5616 5612 5607 5602 5596 5590 5585 5579 5573 5567 5563 5557 5555
5601 5602 5603 5603 5604 5606 5607 5608 5609 5610 5612 5613 5615 5617 5618 5619 5619 5619 5620 5620 5620 5620 5621 5621 5620 5620 5619 5617 5615 5612 5609 5604 5599 5594 5588 5582 5576 5568 5561 5555 5548 5540 5536
5593 5593 5593 5593 5594 5594 5595 5596 5598 5599 5600 5602 5604 5605 5606 5607 5607 5608 5609 5609 5609 5610 5610 5610 5610 5609 5608 5606 5605 5602 5599 5594 5589 5583 5577 5570 5564 5556 5549 5542 5536 5529 5524
5583 5582 5582 5582 5582 5583 5583 5585 5586 5587 5589 5590 5592 5593 5594 5595 5596 5597 5597 5597 5598 5598 5599 5598 5598 5597 5596 5594 5593 5590 5586 5581 5575 5569 5562 5555 5547 5539 5533 5527 5522 5517 5514
5574 5572 5571 5571 5571 5571 5572 5573 5575 5576 5577 5579 5580 5581 5582 5583 5585 5585 5585 5585 5585 5586 5585 5585 5584 5583 5582 5580 5578 5575 5570 5565 5558 5552 5545 5537 5529 5522 5516 5511 5505 5501 5498
5566 5563 5562 5560 5560 5560 5561 5562 5563 5565 5566 5567 5568 5569 5570 5571 5572 5572 5572 5573 5572 5572 5572 5571 5570 5569 5566 5564 5561 5558 5553 5547 5541 5534 5527 5520 5514 5507 5501 5496 5491 5487 5484
5556 5553 5551 5551 5550 5551 5551 5553 5553 5555 5556 5557 5557 5558 5559 5559 5559 5560 5560 5560 5559 5559 5558 5558 5556 5554 5551 5548 5545 5541 5535 5529 5523 5518 5512 5505 5499 5493 5487 5483 5478 5474 5471
5549 5545 5542 5541 5541 5542 5542 5543 5544 5545 5546 5547 5547 5547 5547 5547 5547 5547 5547 5547 5546 5546 5545 5544 5542 5539 5536 5533 5529 5524 5519 5514 5508 5503 5497 5492 5486 5481 5476 5471 5467 5463 5460
5541 5539 5535 5533 5533 5533 5534 5535 5535 5536 5537 5537 5537 5537 5536 5536 5536 5535 5535 5534 5534 5533 5532 5530 5528 5526 5523 5519 5514 5510 5505 5500 5495 5489 5484 5480 5476 5472 5467 5462 5457 5454 5451
5539 5535 5531 5528 5527 5527 5527 5528 5528 5528 5528 5528 5527 5527 5526 5526 5525 5524 5523 5522 5521 5520 5518 5516 5514 5512 5509 5505 5501 5496 5491 5486 5481 5476 5471 5468 5464 5461 5458 5455 5451 5447 5443
5536 5531 5527 5524 5522 5521 5521 5521 5520 5520 5520 5519 5519 5518 5517 5516 5515 5514 5512 5510 5508 5507 5505 5502 5500 5498 5495 5492 5488 5483 5478 5473 5468 5464 5460 5457 5454 5450 5447 5444 5442 5439 5437
5532 5526 5521 5518 5516 5516 5515 5514 5514 5513 5512 5511 5510 5509 5508 5507 5505 5503 5501 5499 5497 5494 5492 5489 5486 5484 5482 5480 5476 5471 5466 5462 5458 5454 5451 5447 5444 5442 5439 5436 5432 5429 5427
5527 5522 5517 5514 5511 5510 5509 5508 5507 5506 5505 5503 5502 5501 5500 5498 5495 5493 5490 5488 5485 5482 5480 5477 5474 5472 5470 5469 5465 5461 5456 5452 5448 5446 5443 5440 5437 5436 5433 5428 5424 5421 5418
5520 5516 5511 5509 5506 5505 5504 5502 5500 5499 5498 5497 5495 5493 5491 5489 5486 5484 5481 5479 5476 5472 5470 5466 5464 5462 5460 5460 5457 5452 5448 5443 5440 5437 5435 5433 5431 5429 5425 5420 5416 5412 5409
5513 5510 5507 5504 5502 5501 5499 5497 5495 5494 5493 5491 5488 5486 5484 5481 5479 5476 5473 5470 5467 5464 5461 5458 5456 5454 5452 5451 5449 5446 5440 5436 5433 5429 5426 5424 5423 5420 5417 5413 5408 5405 5403
5507 5504 5502 5499 5498 5496 5495 5492 5490 5489 5487 5485 5482 5480 5477 5475 5472 5469 5466 5462 5459 5456 5453 5451 5448 5446 5443 5442 5440 5438 5435 5431 5426 5422 5419 5416 5416 5413 5409 5405 5402 5399 5394
5503 5500 5498 5495 5493 5492 5491 5489 5487 5484 5482 5479 5476 5474 5471 5468 5466 5462 5459 5456 5453 5450 5447 5444 5441 5438 5436 5433 5432 5430 5427 5424 5419 5415 5413 5411 5408 5404 5400 5396 5393 5388 5382
5499 5497 5494 5492 5490 5489 5488 5486 5484 5481 5477 5474 5471 5468 5465 5462 5459 5457 5454 5450 5447 5444 5442 5439 5435 5431 5428 5426 5423 5420 5417 5415 5412 5408 5405 5402 5398 5395 5391 5387 5382 5376 5371
5497 5494 5493 5491 5490 5487 5485 5483 5480 5477 5473 5469 5466 5463 5460 5456 5453 5450 5448 5445 5442 5439 5437 5433 5429 5425 5422 5421 5420 5415 5412 5408 5405 5402 5396 5392 5388 5383 5380 5375 5371 5365 5360
5494 5492 5490 5489 5488 5485 5483 5480 5477 5473 5469 5465 5461 5458 5454 5450 5446 5443 5441 5440 5438 5436 5434 5429 5425 5422 5419 5417 5414 5410 5407 5404 5400 5395 5388 5383 5378 5373 5369 5364 5359 5354 5348